Rbgn^[z[y[W
メイン
   新天体発見情報
     Comet P/2021 R9 (Sheppard-Tholen)
投稿するにはまず登録を

スレッド表示 | 古いものから 前のトピック | 次のトピック | 下へ
投稿者 スレッド
佐藤裕久
投稿日時: 2022-7-27 8:24
モデレータ
登録日: 2005-6-12
居住地: 日本
投稿: 2548
オンライン
Comet P/2021 R9 (Sheppard-Tholen)

David J. Tholen (ハワイ大学)の通報によると、2021年9月5.6日と6.6日UT、Scott S. 
Sheppardと彼は、Mauna Keaにある8.2-m f/2.2 すばる望遠鏡で得たSuprimeCam画像から
彗星を発見した。この彗星は、p.a. 240°に少なくとも14"の細い尾が伸びて見える。
Tholenの要請を受け、R. Weryk (西オンタリオ大学,物理および天文学科)は、Haleakala
にあるPan-STARRS1とPan-STARRS2望遠鏡の画像からこの彗星を確認した。2021年9月5.4日UT、
質の悪いPan-STARRS2のスタック画像は、p.a.240°に向かって尾を引いていた可能性がある。
2021年10月31.2日、4枚の45-秒WバンドPan-STARRS1サーベイ画像は、1".2のシーイングで
1".5(半値全幅:FWHM)の集光したコマがあるが明らかな尾はない。
2021年11月7.2日、4枚の45-秒WバンドPan-STARRS2サーベイ画像は、1".0のシーイングで
1".4(FWHM)の集光したコマがあるが明らかな尾はない。
TholenとWerykの位置観測が小惑星センターのPCCP webpageに公表後、中野主一氏 (中央局)は、
小惑星センターの小惑星センターの "isolated tracklet file "から、予備符号のついた
2008年10月のMt Lemmonサーベイの1.5-m望遠鏡によるCCD観測と2007年6月のMauna Keaにある
3.6-m Canada-France-Hawaii TelescopeによるCCD観測を確認した。

彗星機能の報告は次のとおり、

OC   Date        Reporter           Coma    Tail    PA          Exposures
F51  2021-10-31  R. Weryk           0".4                        4x45s
F52  2021-11-07  R. Weryk           0".4                        4x45s

発見位置は次のとおり、

     2021 UT             R.A. (2000) Decl.       Mag.   Observer
     Sept. 5.61526    0 19 30.06   +10 53 27.0   22.4   Tholen
           6.62152    0 19 04.19   +10 52 05.3   22.8     "

     2007 UT             R.A. (2000) Decl.       Mag.   Observer
     June  6.55674   23 16 18.00   + 0 00 28.4   22.8   Willott

     2008 UT             R.A. (2000) Decl.       Mag.   Observer
     Oct.  9.35032    1 42 23.58   +20 37 49.9   22.6   Mt. Lemmon
           9.35615    1 42 23.32   +20 37 48.7   21.7     "
           9.36197    1 42 23.14   +20 37 48.3   21.7     "
           9.36776    1 42 23.00   +20 37 47.6   21.5     "
          29.37935    1 31 46.56   +19 42 41.0   20.9     "
          29.38719    1 31 46.27   +19 42 39.9   20.9     "
          29.39498    1 31 46.02   +19 42 38.4   21.9     "
          29.40272    1 31 45.80   +19 42 36.6   21.6     "

MPCの楕円軌道要素、位置推算表は次のとおり、

Orbital elements:
    P/2021 R9 (Sheppard-Tholen)                                                 
Epoch 2009 Jan. 9.0 TT = JDT 2454840.5                                          
T 2009 Jan. 3.56300 TT                                  Rudenko                 
q   4.6305675            (2000.0)            P               Q                  
n   0.07311751     Peri.   94.40258     +0.78842590     -0.60548758             
a   5.6639811      Node   302.90027     +0.50060936     +0.73407117             
e   0.1824536      Incl.    7.42394     +0.35745610     +0.30744808             
P  13.5                                                                         
From 46 observations 2007 June 6-2022 Jan. 25, mean residual 0".3.              
                                                                                
    P/2021 R9 (Sheppard-Tholen)                                                 
Epoch 2022 Aug. 9.0 TT = JDT 2459800.5                                          
T 2022 Aug. 18.05625 TT                                 Rudenko                 
q   4.6269202            (2000.0)            P               Q                  
n   0.07347223     Peri.   97.53254     +0.75645402     -0.64492285             
a   5.6457360      Node   302.69689     +0.53741239     +0.70775655             
e   0.1804576      Incl.    7.43292     +0.37278041     +0.28836639             
P  13.4                                                                         
From 46 observations 2007 June 6-2022 Jan. 25, mean residual 0".3.              
                                                                                
Ephemeris:
Date    TT    R. A. (2000) Decl.     Delta      r    Elong.  Phase   m1
2022 06 22    02 35 19.0 +22 05 04   5.2606  4.6310    47.2     9.3  22.3
...
2022 07 07    02 47 58.8 +23 15 04   5.0822  4.6291    58.3    10.8  22.2
...
2022 07 15    02 54 08.8 +23 49 41   4.9772  4.6284    64.3    11.4  22.1
...
2022 07 21    02 58 27.3 +24 14 20   4.8947  4.6279    68.9    11.8  22.1
2022 07 22    02 59 08.7 +24 18 20   4.8807  4.6278    69.7    11.9  22.1
2022 07 23    02 59 49.5 +24 22 17   4.8666  4.6278    70.5    11.9  22.1
...
2022 07 29    03 03 43.2 +24 45 20   4.7808  4.6274    75.2    12.3  22.1
...
2022 08 06    03 08 21.7 +25 14 01   4.6635  4.6271    81.7    12.5  22.0
...
2022 08 21    03 15 08.1 +26 01 01   4.4400  4.6269    94.3    12.6  21.9

(MPEC 2022-O19、CBET 5152)

スレッド表示 | 古いものから 前のトピック | 次のトピック | トップ

投稿するにはまず登録を
 
© 1999 Tsutomu Seki.